Location: Nelson
(41.2830°S, 173.2830°E)
Time: 12:58:34
(UTC+13:00)

Radarsat Rocket - Pass Details

Date: 28 September 2021
Orbit: 933 x 1492 km, 100.6° (Epoch: 27 October)

Event Time Altitude Azimuth Distance (km) Brightness Sun altitude
Rises 19:58:16 0° 163° (SSE) 4,268 7.3 -6.2°
Reaches altitude 10° 20:01:07 10° 161° (SSE) 3,216 6.6 -6.7°
Maximum altitude 20:08:24 77° 75° (ENE) 1,152 4.3 -8.1°
Drops below altitude 10° 20:14:45 10° 349° (NNW) 2,815 6.4 -9.3°
Sets 20:17:06 0° 347° (NNW) 3,707 7.1 -9.7°
